Location: Fernhill
(41.0167°S, 175.6333°E)
Time: 09:15:35
(UTC+00:00)

IRIDIUM 106 - Pass Details

Date: 08 November 2025
Orbit: 776 x 779 km, 86.4° (Epoch: 11 December)

Event Time Altitude Azimuth Distance (km) Brightness Sun altitude
Exits shadow 09:20:21 36° 358° (N) 1,226 5.0 -21.3°
Maximum altitude 09:22:35 89° 266° (W) 792 4.3 -21.6°
Drops below altitude 10° 09:27:54 10° 178° (S) 2,361 7.4 -22.2°
Sets 09:30:16 0° 177° (S) 3,297 8.3 -22.5°
